NPV7799 LIRN-LIML

Flight info

Callsign NPV7799
Flight time 1h 2m
Altitude 32000
Route ALAXI DCT INSOX DCT NIKMA DCT VERUN DCT LOMED DCT RUXOL/N0346F180 Q920 KALIK
Aircraft A320/M-SDE3FGHIRWY/LB1

Departure

Time 2026-05-04 13:31
Airport Naples International Airport (LIRN)

Arrival

Time 2026-05-04 14:34
Airport Milano Linate Airport (LIML)
Time Latitude Longitude Altitude Speed Heading
2026-05-04 13:03 40.88173 14.28667 288 ft 0 kts 329°
2026-05-04 13:15 40.88157 14.28679 288 ft 4 kts 329°
2026-05-04 13:15 40.88140 14.28694 288 ft 4 kts 325°
2026-05-04 13:15 40.88120 14.28704 294 ft 3 kts
2026-05-04 13:15 40.88097 14.28693 294 ft 4 kts 45°
2026-05-04 13:16 40.88080 14.28665 291 ft 4 kts 54°
2026-05-04 13:16 40.88077 14.28659 295 ft 0 kts 52°
2026-05-04 13:18 40.88080 14.28665 291 ft 3 kts 52°
2026-05-04 13:19 40.88105 14.28708 295 ft 9 kts 52°
2026-05-04 13:19 40.88134 14.28759 286 ft 12 kts 52°
2026-05-04 13:19 40.88222 14.28911 280 ft 19 kts 53°
2026-05-04 13:19 40.88309 14.29065 274 ft 25 kts 53°
2026-05-04 13:20 40.88392 14.29204 268 ft 0 kts 49°
2026-05-04 13:20 40.88394 14.29208 268 ft 3 kts 50°
2026-05-04 13:20 40.88418 14.29249 266 ft 8 kts 53°
2026-05-04 13:20 40.88463 14.29329 263 ft 14 kts 53°
2026-05-04 13:21 40.88532 14.29449 258 ft 19 kts 53°
2026-05-04 13:21 40.88624 14.29610 252 ft 25 kts 53°
2026-05-04 13:21 40.88739 14.29810 244 ft 30 kts 52°
2026-05-04 13:21 40.88876 14.30048 238 ft 35 kts 53°
2026-05-04 13:22 40.88977 14.30223 228 ft 33 kts 53°
2026-05-04 13:22 40.89067 14.30378 221 ft 21 kts 52°
2026-05-04 13:22 40.89134 14.30451 220 ft 0 kts 15°
2026-05-04 13:29 40.89135 14.30451 217 ft 1 kts 15°
2026-05-04 13:30 40.89157 14.30449 220 ft 6 kts 351°
2026-05-04 13:30 40.89203 14.30414 216 ft 9 kts 320°
2026-05-04 13:30 40.89200 14.30339 221 ft 8 kts 240°
2026-05-04 13:30 40.89170 14.30275 223 ft 10 kts 238°
2026-05-04 13:31 40.89017 14.29959 236 ft 76 kts 237°
2026-05-04 13:31 40.88637 14.29150 265 ft 129 kts 237°
2026-05-04 13:31 40.88087 14.27995 434 ft 158 kts 236°
2026-05-04 13:31 40.87531 14.26756 1015 ft 162 kts 237°
2026-05-04 13:32 40.86699 14.25731 1524 ft 172 kts 198°
2026-05-04 13:32 40.85494 14.25767 2015 ft 180 kts 170°
2026-05-04 13:32 40.84240 14.26099 2507 ft 189 kts 170°
2026-05-04 13:32 40.82926 14.26437 3061 ft 194 kts 170°
2026-05-04 13:33 40.81578 14.26731 3599 ft 201 kts 176°
2026-05-04 13:33 40.80176 14.26343 3851 ft 221 kts 211°
2026-05-04 13:33 40.79127 14.24763 4243 ft 240 kts 250°
2026-05-04 13:33 40.79075 14.22580 4909 ft 248 kts 288°
2026-05-04 13:34 40.80075 14.20708 5563 ft 261 kts 322°
2026-05-04 13:34 40.81731 14.19486 6178 ft 277 kts 337°
2026-05-04 13:34 40.83558 14.18625 7036 ft 281 kts 342°
2026-05-04 13:34 40.85437 14.17877 7917 ft 283 kts 343°
2026-05-04 13:35 40.87333 14.17129 8784 ft 286 kts 342°
2026-05-04 13:35 40.91148 14.15506 10334 ft 299 kts 340°
2026-05-04 13:35 40.93212 14.14561 10603 ft 322 kts 340°
2026-05-04 13:36 40.95338 14.13559 11106 ft 333 kts 339°
2026-05-04 13:36 40.97534 14.12509 11775 ft 338 kts 339°
2026-05-04 13:36 40.99752 14.11447 12466 ft 343 kts 338°
2026-05-04 13:36 41.02015 14.10363 13170 ft 347 kts 339°
2026-05-04 13:37 41.04327 14.09256 13866 ft 351 kts 338°
2026-05-04 13:37 41.06607 14.08163 14502 ft 354 kts 338°
2026-05-04 13:37 41.08929 14.07047 15135 ft 356 kts 338°
2026-05-04 13:37 41.11268 14.05919 15760 ft 358 kts 338°
2026-05-04 13:38 41.13611 14.04790 16388 ft 360 kts 338°
2026-05-04 13:38 41.15984 14.03647 17015 ft 363 kts 338°
2026-05-04 13:38 41.18362 14.02507 17646 ft 365 kts 338°
2026-05-04 13:38 41.20766 14.01355 18297 ft 367 kts 338°
2026-05-04 13:39 41.23177 14.00198 18880 ft 370 kts 338°
2026-05-04 13:39 41.25608 13.99031 19448 ft 372 kts 338°
2026-05-04 13:39 41.28017 13.97763 20007 ft 372 kts 331°
2026-05-04 13:39 41.30223 13.95961 20564 ft 372 kts 320°
2026-05-04 13:40 41.32129 13.93633 21102 ft 372 kts 311°
2026-05-04 13:40 41.33901 13.91106 21638 ft 374 kts 311°
2026-05-04 13:40 41.35689 13.88573 22152 ft 377 kts 312°
2026-05-04 13:40 41.37491 13.86032 22660 ft 380 kts 312°
2026-05-04 13:41 41.39299 13.83490 23150 ft 382 kts 312°
2026-05-04 13:41 41.41133 13.80907 23650 ft 385 kts 312°
2026-05-04 13:41 41.42976 13.78301 24070 ft 387 kts 312°
2026-05-04 13:42 41.46692 13.73037 24919 ft 391 kts 311°
2026-05-04 13:42 41.48554 13.70393 25344 ft 393 kts 311°
2026-05-04 13:42 41.50421 13.67734 25771 ft 394 kts 311°
2026-05-04 13:42 41.52307 13.65046 26195 ft 396 kts 311°
2026-05-04 13:43 41.54171 13.62390 26606 ft 398 kts 311°
2026-05-04 13:43 41.56085 13.59665 27017 ft 399 kts 311°
2026-05-04 13:43 41.57986 13.56957 27425 ft 401 kts 312°
2026-05-04 13:43 41.59906 13.54220 27834 ft 403 kts 312°
2026-05-04 13:44 41.61812 13.51500 28170 ft 407 kts 311°
2026-05-04 13:44 41.63770 13.48693 28472 ft 411 kts 311°
2026-05-04 13:44 41.65714 13.45904 29000 ft 410 kts 311°
2026-05-04 13:44 41.67651 13.43126 29435 ft 410 kts 311°
2026-05-04 13:45 41.69582 13.40354 29861 ft 412 kts 311°
2026-05-04 13:45 41.71537 13.37544 30270 ft 413 kts 311°
2026-05-04 13:45 41.73529 13.34681 30620 ft 415 kts 311°
2026-05-04 13:45 41.75491 13.31859 30965 ft 416 kts 311°
2026-05-04 13:46 41.77464 13.29016 31328 ft 416 kts 311°
2026-05-04 13:46 41.79433 13.26174 31835 ft 413 kts 311°
2026-05-04 13:46 41.81383 13.23418 32090 ft 413 kts 314°
2026-05-04 13:46 41.83621 13.21038 32154 ft 406 kts 324°
2026-05-04 13:47 41.88410 13.17129 32148 ft 402 kts 325°
2026-05-04 13:47 41.93187 13.13209 32138 ft 403 kts 324°
2026-05-04 13:48 41.97927 13.09305 32156 ft 399 kts 324°
2026-05-04 13:48 42.02660 13.05405 32164 ft 398 kts 324°
2026-05-04 13:49 42.07375 13.01517 32167 ft 398 kts 324°
2026-05-04 13:49 42.12108 12.97610 32173 ft 398 kts 324°
2026-05-04 13:50 42.16832 12.93705 32172 ft 398 kts 324°
2026-05-04 13:50 42.21557 12.89790 32185 ft 398 kts 324°
2026-05-04 13:51 42.26247 12.85892 32185 ft 398 kts 324°
2026-05-04 13:51 42.30964 12.81965 32199 ft 398 kts 325°
2026-05-04 13:52 42.38062 12.76049 32177 ft 400 kts 324°
2026-05-04 13:53 42.42788 12.72098 32180 ft 400 kts 324°
2026-05-04 13:53 42.47541 12.68126 32183 ft 401 kts 324°
2026-05-04 13:54 42.54649 12.62168 32180 ft 401 kts 324°
2026-05-04 13:55 42.61769 12.56166 32147 ft 402 kts 324°
2026-05-04 13:55 42.68908 12.50139 32127 ft 403 kts 324°
2026-05-04 13:56 42.73450 12.46298 32128 ft 403 kts 324°
2026-05-04 13:57 42.80611 12.40227 32115 ft 405 kts 324°
2026-05-04 13:58 42.90197 12.32077 32136 ft 406 kts 324°
2026-05-04 13:58 42.97381 12.25954 32153 ft 406 kts 324°
2026-05-04 13:59 43.02157 12.21863 32124 ft 408 kts 324°
2026-05-04 14:00 43.09059 12.15118 32103 ft 406 kts 315°
2026-05-04 14:00 43.15369 12.07524 32116 ft 406 kts 315°
2026-05-04 14:01 43.19619 12.02422 32130 ft 407 kts 315°
2026-05-04 14:02 43.26019 11.94723 32116 ft 408 kts 315°
2026-05-04 14:02 43.30269 11.89580 32114 ft 408 kts 315°
2026-05-04 14:03 43.34500 11.84442 32110 ft 412 kts 315°
2026-05-04 14:03 43.36685 11.81783 32108 ft 423 kts 315°
2026-05-04 14:03 43.38907 11.79075 32108 ft 432 kts 315°
2026-05-04 14:04 43.45868 11.70607 32113 ft 455 kts 316°
2026-05-04 14:04 43.50626 11.64814 32111 ft 455 kts 315°
2026-05-04 14:05 43.57693 11.56158 32109 ft 453 kts 315°
2026-05-04 14:06 43.62406 11.50362 32110 ft 453 kts 315°
2026-05-04 14:06 43.67083 11.44604 32111 ft 453 kts 315°
2026-05-04 14:07 43.71815 11.38763 32103 ft 454 kts 315°
2026-05-04 14:07 43.76520 11.32947 32099 ft 454 kts 315°
2026-05-04 14:08 43.81215 11.27145 32102 ft 454 kts 315°
2026-05-04 14:08 43.85920 11.21314 32098 ft 454 kts 315°
2026-05-04 14:09 43.92977 11.12526 32093 ft 455 kts 315°
2026-05-04 14:10 44.00011 11.03667 32091 ft 454 kts 311°
2026-05-04 14:10 44.03455 10.96489 32093 ft 447 kts 290°
2026-05-04 14:11 44.05321 10.88305 32083 ft 446 kts 285°
2026-05-04 14:11 44.07979 10.75908 32094 ft 446 kts 285°
2026-05-04 14:12 44.09753 10.67635 32099 ft 446 kts 285°
2026-05-04 14:13 44.13267 10.55688 32099 ft 450 kts 301°
2026-05-04 14:13 44.15006 10.52074 31935 ft 448 kts 301°
2026-05-04 14:13 44.16744 10.48443 31029 ft 450 kts 301°
2026-05-04 14:13 44.18483 10.44798 30000 ft 455 kts 301°
2026-05-04 14:14 44.20249 10.41095 28811 ft 460 kts 301°
2026-05-04 14:14 44.23767 10.33704 26501 ft 468 kts 301°
2026-05-04 14:14 44.25532 10.29992 25723 ft 465 kts 301°
2026-05-04 14:15 44.29102 10.22476 24165 ft 455 kts 301°
2026-05-04 14:15 44.32571 10.15163 22452 ft 447 kts 301°
2026-05-04 14:16 44.35934 10.08050 20901 ft 436 kts 301°
2026-05-04 14:16 44.37593 10.04520 20143 ft 431 kts 301°
2026-05-04 14:17 44.40838 9.97615 18624 ft 421 kts 301°
2026-05-04 14:17 44.42440 9.94201 17865 ft 417 kts 301°
2026-05-04 14:17 44.45590 9.87483 16324 ft 409 kts 301°
2026-05-04 14:18 44.47222 9.84231 15613 ft 408 kts 308°
2026-05-04 14:18 44.50952 9.78336 14543 ft 394 kts 309°
2026-05-04 14:19 44.54409 9.72833 14306 ft 360 kts 309°
2026-05-04 14:19 44.56027 9.70251 14184 ft 346 kts 308°
2026-05-04 14:19 44.57067 9.68587 14106 ft 336 kts 309°
2026-05-04 14:19 44.59080 9.65365 13951 ft 321 kts 308°
2026-05-04 14:20 44.60065 9.63789 13795 ft 316 kts 308°
2026-05-04 14:20 44.61516 9.61468 13459 ft 313 kts 308°
2026-05-04 14:20 44.62925 9.59212 13049 ft 312 kts 308°
2026-05-04 14:21 44.65783 9.54624 12245 ft 311 kts 308°
2026-05-04 14:21 44.67204 9.52345 11853 ft 310 kts 308°
2026-05-04 14:21 44.68626 9.50064 11462 ft 309 kts 309°
2026-05-04 14:21 44.70037 9.47796 11078 ft 309 kts 308°
2026-05-04 14:22 44.71450 9.45518 10686 ft 309 kts 308°
2026-05-04 14:22 44.72866 9.43240 10340 ft 308 kts 308°
2026-05-04 14:22 44.74286 9.40958 10032 ft 306 kts 308°
2026-05-04 14:22 44.75674 9.38727 9795 ft 301 kts 308°
2026-05-04 14:23 44.79010 9.35264 9178 ft 301 kts 338°
2026-05-04 14:23 44.81011 9.34520 8882 ft 299 kts 352°
2026-05-04 14:23 44.83104 9.34289 8536 ft 298 kts 356°
2026-05-04 14:24 44.85173 9.34083 8241 ft 296 kts 356°
2026-05-04 14:24 44.87199 9.33871 7984 ft 294 kts 355°
2026-05-04 14:24 44.89219 9.33655 7678 ft 292 kts 356°
2026-05-04 14:24 44.91245 9.33437 7408 ft 289 kts 355°
2026-05-04 14:25 44.93247 9.33222 7128 ft 287 kts 356°
2026-05-04 14:25 44.97196 9.32801 6563 ft 282 kts 356°
2026-05-04 14:25 44.99149 9.32593 6292 ft 279 kts 356°
2026-05-04 14:26 45.01080 9.32389 5974 ft 278 kts 355°
2026-05-04 14:26 45.03010 9.32183 5652 ft 277 kts 355°
2026-05-04 14:26 45.04924 9.31975 5371 ft 274 kts 355°
2026-05-04 14:26 45.06820 9.31770 5099 ft 271 kts 355°
2026-05-04 14:27 45.08692 9.31571 4824 ft 269 kts 355°
2026-05-04 14:27 45.10549 9.31372 4530 ft 267 kts 355°
2026-05-04 14:27 45.12394 9.31172 4236 ft 265 kts 354°
2026-05-04 14:27 45.14208 9.30975 3984 ft 262 kts 355°
2026-05-04 14:28 45.15992 9.30782 3848 ft 253 kts 354°
2026-05-04 14:28 45.17712 9.30594 3732 ft 244 kts 354°
2026-05-04 14:28 45.19398 9.30411 3590 ft 236 kts 354°
2026-05-04 14:28 45.20990 9.30240 3477 ft 228 kts 355°
2026-05-04 14:29 45.24044 9.29910 3217 ft 211 kts 353°
2026-05-04 14:29 45.26849 9.29610 2993 ft 188 kts 353°
2026-05-04 14:30 45.28066 9.29482 2891 ft 162 kts 353°
2026-05-04 14:30 45.29119 9.29371 2702 ft 146 kts 352°
2026-05-04 14:30 45.31112 9.29154 2143 ft 143 kts 352°
2026-05-04 14:31 45.32089 9.29047 2095 ft 143 kts 352°
2026-05-04 14:31 45.34083 9.28846 1837 ft 144 kts 353°
2026-05-04 14:32 45.36059 9.28616 1637 ft 143 kts 352°
2026-05-04 14:32 45.37048 9.28513 1610 ft 143 kts 353°
2026-05-04 14:32 45.38054 9.28441 1510 ft 144 kts 352°
2026-05-04 14:32 45.39049 9.28338 1351 ft 143 kts 353°
2026-05-04 14:33 45.40047 9.28214 1180 ft 145 kts 352°
2026-05-04 14:33 45.41043 9.28066 931 ft 142 kts 352°
2026-05-04 14:33 45.42029 9.27963 687 ft 142 kts 354°
2026-05-04 14:33 45.43014 9.27864 483 ft 141 kts 352°
2026-05-04 14:34 45.43963 9.27766 367 ft 128 kts 354°
2026-05-04 14:34 45.44663 9.27684 363 ft 80 kts 355°
2026-05-04 14:34 45.44975 9.27651 362 ft 29 kts 356°
2026-05-04 14:34 45.45177 9.27634 359 ft 30 kts 359°
2026-05-04 14:35 45.45369 9.27702 363 ft 17 kts 27°
2026-05-04 14:35 45.45393 9.27719 365 ft 0 kts 27°
2026-05-04 14:36 45.45398 9.27723 364 ft 1 kts 27°
2026-05-04 14:36 45.45410 9.27732 363 ft 3 kts 30°
2026-05-04 14:36 45.45430 9.27751 362 ft 4 kts 35°
2026-05-04 14:36 45.45453 9.27787 360 ft 6 kts 50°
2026-05-04 14:37 45.45495 9.27813 360 ft 8 kts
2026-05-04 14:37 45.45558 9.27815 360 ft 10 kts
2026-05-04 14:37 45.45638 9.27816 365 ft 13 kts
2026-05-04 14:37 45.45737 9.27817 360 ft 16 kts
2026-05-04 14:38 45.45847 9.27819 360 ft 10 kts
2026-05-04 14:38 45.45894 9.27836 360 ft 3 kts 33°
2026-05-04 14:38 45.45921 9.27847 362 ft 5 kts
2026-05-04 14:38 45.45965 9.27848 362 ft 2 kts
2026-05-04 14:39 45.45974 9.27848 363 ft 2 kts
2026-05-04 14:39 45.45975 9.27848 363 ft 0 kts